Location: Marse
(42.1502°N, 110.9866°W)
Time: 15:12:48
(UTC+00:00)

Oscar 19 - Pass Details

Date: 05 July 2022
Orbit: 773 x 790 km, 98.8° (Epoch: 13 August)

Event Time Altitude Azimuth Distance (km) Brightness Sun altitude
Rises 09:59:10 0° 27° (NNE) 3,258 15.6 -16.4°
Reaches altitude 10° 10:01:55 10° 41° (NE) 2,326 14.5 -16.1°
Maximum altitude 10:06:01 24° 94° (E) 1,567 12.6 -15.6°
Drops below altitude 10° 10:10:05 10° 148° (SSE) 2,315 12.9 -15.1°
Enters shadow 10:12:27 - 160° (SSE) 3,108 13.4 -14.9°
